Regional Weather Roundup
Issued by NWS

Home | Current Version | Previous Version | Text Only | Print | Product List | Glossary On
Versions: 1 2 3 4 5 6 7 8 9 10 11 12 13 14 15 16 17 18 19 20 21 22 23 24 25 26 27 28 29 30 31 32 33 34 35 36 37 38 39 40 41 42 43 44 45 46 47 48 49 50
000
ASUS46 KPQR 032210
RWROR

OREGON REGIONAL WEATHER ROUNDUP
NATIONAL WEATHER SERVICE PORTLAND OR
300 PM PDT MON AUG 03 2015

NOTE: "FAIR" INDICATES FEW OR NO CLOUDS BELOW 12,000 FEET WITH
NO SIGNIFICANT WEATHER AND/OR OBSTRUCTIONS TO VISIBILITY.

ORZ001>013-032300-
NORTHWEST OREGON


CITY           SKY/WX    TMP DP  RH WIND       PRES   REMARKS
ASTORIA        PTSUNNY   70  58  65 NW15      29.99S
NEWPORT        MOSUNNY   64  55  72 N22G30    29.99F
PORTLAND       PTSUNNY   82  54  37 NW7       29.91F
VANCOUVER WA   PTSUNNY   81  54  39 W7        29.91F
SCAPPOOSE      PTSUNNY   82  56  40 NE3       29.90F
HILLSBORO      PTSUNNY   82  52  35 VRB5      29.91F
AURORA         PTSUNNY   82  51  34 NE7       29.92S
MCMINNVILLE    CLOUDY    82  53  36 NW3       29.92S
SALEM          CLOUDY    84  50  30 N8        29.90F
CORVALLIS      PTSUNNY   86  50  28 N5        29.92F
EUGENE         PTSUNNY   86  52  30 N13       29.90F
$$

ORZ021-028-032300-
SOUTHWEST OREGON


CITY           SKY/WX    TMP DP  RH WIND       PRES   REMARKS
NORTH BEND     PTSUNNY   66  57  72 N14       29.99S
BROOKINGS      PTSUNNY   65  60  83 SW6       30.00S
ROSEBURG       PTSUNNY   84  55  36 N7        29.89F
SEXTON SUMMIT  HAZE      76  58  53 N7        30.03F VSB 3/4
MEDFORD        MOSUNNY   93  54  26 N9        29.84F HAZE    HX  91
$$

ORZ014>016-041-032300-
COLUMBIA GORGE


CITY           SKY/WX    TMP DP  RH WIND       PRES   REMARKS
TROUTDALE      PTSUNNY   80  52  37 VRB3      29.90F
THE DALLES     CLOUDY    79  51  37 NW17G26   29.83F
$$

ORZ029>031-041-044-049-050-061>064-502-503-505>511-032300-
EASTERN OREGON


CITY           SKY/WX    TMP DP  RH WIND       PRES   REMARKS
REDMOND        PTSUNNY   86  46  24 N12       29.95F
BEND           MOSUNNY   84  45  24 W7        29.97F
PRINEVILLE     PTSUNNY   84  45  24 NE8       29.96F
KLAMATH FALLS  PTSUNNY   82  43  25 S7        30.00F
LAKEVIEW       MOSUNNY   82  45  26 S6        30.04F
HERMISTON      CLOUDY    88  46  23 W15G21    29.81R
PENDLETON      CLOUDY    86  40  19 W15       29.86R
JOHN DAY       CLOUDY    83  43  24 N9        30.00S
MEACHAM        CLOUDY    76  39  26 MISG      30.02R
LA GRANDE      CLOUDY    81  39  22 W16       29.92R
BAKER CITY     NOT AVBL
BURNS          PTSUNNY   85  40  20 CALM      30.00S
ROME             N/A     90  41  18 SW7G18    29.96F
ONTARIO        CLOUDY    93  46  19 E3        29.86F
$$



USA.gov is the U.S. government's official web portal to all federal, state and local government web resources and services.